GEFSMA_con_probscp_216.txt.gz
Probability
20 21 23 24 21 19 17 14 12 12 15 16 14 10 8 8 11 16 21 23 22 17 12 9 10 12 13 14 13 10 9 9 10 10 12 14 12 9 9 8 7 8 10
24 24 25 24 22 21 20 17 12 11 14 17 14 11 10 10 12 15 19 21 18 13 9 8 10 11 12 14 14 10 9 10 10 10 10 9 9 8 7 6 6 6 6
28 27 25 25 25 25 24 21 16 13 16 17 14 11 11 11 11 12 15 16 13 9 6 6 8 9 9 12 13 11 9 10 11 11 8 5 6 7 7 7 7 5 4
27 26 24 25 27 27 26 25 21 18 17 16 14 12 11 10 8 8 10 10 9 9 8 8 9 10 10 11 11 11 9 8 10 12 10 7 8 10 11 11 11 8 6
26 25 26 27 28 25 24 25 24 20 17 15 13 11 10 8 7 5 5 6 7 8 9 10 11 12 12 12 11 11 9 7 7 11 12 12 14 15 14 13 13 12 9
25 26 28 29 28 25 23 23 22 20 17 14 11 9 9 7 6 5 4 4 5 6 7 8 10 11 12 12 12 12 10 7 6 8 12 16 18 18 14 12 12 12 12
22 24 25 27 27 26 24 22 20 18 16 14 11 8 7 6 6 5 4 4 4 4 4 5 7 9 10 11 11 12 11 9 8 9 11 15 18 18 14 12 11 11 10
20 20 21 22 24 24 22 20 17 15 14 12 11 8 6 4 4 4 4 4 4 3 3 4 6 8 10 12 12 12 12 12 12 12 11 12 15 16 14 12 12 9 7
16 16 18 20 19 18 17 15 14 11 9 9 9 8 6 4 5 6 5 4 3 3 4 4 5 7 9 12 12 10 10 12 13 13 13 13 13 12 11 10 11 9 7
12 13 14 16 15 12 11 12 11 9 7 7 7 7 6 5 6 8 7 5 4 4 4 4 4 5 7 11 12 9 6 8 10 11 12 13 12 10 8 8 8 8 7
10 9 9 10 10 9 9 11 10 9 8 7 7 6 6 7 7 8 7 6 6 5 4 5 5 5 5 8 9 6 3 3 4 6 8 9 9 9 8 7 7 7 7
9 7 6 6 6 7 8 9 9 8 9 8 7 6 7 7 7 7 5 5 5 5 5 5 5 5 4 5 5 3 1 0 1 1 2 3 5 6 7 7 7 6 6
8 7 5 4 4 4 5 7 7 7 7 7 6 7 8 7 7 7 5 4 4 4 4 5 4 4 3 4 4 2 1 0 0 0 0 0 1 2 4 5 5 5 5
6 6 5 4 3 4 5 6 6 5 5 5 4 5 7 7 6 6 6 5 4 4 4 4 4 4 3 4 4 3 2 1 0 0 0 0 0 0 1 2 2 2 2
5 5 4 3 3 4 5 5 4 3 2 2 3 4 6 6 6 7 7 7 6 5 4 4 5 5 4 3 4 4 3 1 0 0 0 0 0 0 0 0 0 0 0
7 6 4 3 3 3 4 4 3 1 0 1 2 3 5 7 7 8 9 11 11 8 5 5 7 7 5 3 2 3 3 1 0 0 0 0 0 0 0 0 0 0 0
7 6 5 3 2 2 3 2 1 0 0 1 2 3 5 7 9 9 11 13 13 11 8 7 8 8 5 2 0 1 1 1 1 0 0 0 0 0 0 0 0 0 0
6 6 5 3 1 1 2 1 0 0 0 0 1 2 4 7 9 11 11 11 11 10 8 7 8 7 4 2 1 0 0 0 0 0 0 0 0 0 0 0 0 0 0
6 6 5 3 1 0 1 1 0 0 0 0 1 1 3 6 9 10 10 8 7 7 7 7 7 7 5 2 1 0 0 0 0 0 0 0 0 0 0 0 0 0 0
6 6 6 3 1 0 0 0 0 1 1 1 0 1 3 5 6 8 7 6 6 6 6 7 7 6 4 2 1 1 0 0 0 1 1 0 0 0 0 0 0 0 0
6 6 6 4 2 1 0 0 0 1 2 2 2 2 3 3 3 3 3 4 5 6 7 7 7 4 2 2 3 2 1 0 0 1 2 1 1 0 0 0 0 0 0
6 6 6 4 3 1 0 0 0 1 2 2 2 2 1 1 0 1 1 1 3 4 6 7 5 3 1 3 3 2 1 0 0 1 2 2 1 0 0 0 0 0 0
6 6 5 4 4 3 1 0 0 1 1 1 1 1 0 0 0 0 0 0 1 1 3 4 3 2 1 2 2 1 0 0 0 1 1 1 0 0 0 0 0 0 0
4 3 3 4 4 3 1 0 0 0 0 0 0 0 0 0 0 1 0 0 0 0 1 2 3 2 1 2 1 0 0 0 0 0 0 0 0 1 1 1 0 0 0
2 1 1 2 3 3 1 0 0 0 0 0 0 0 0 0 0 0 0 0 0 0 0 1 1 1 0 1 1 0 0 0 0 0 0 0 0 1 2 2 1 0 0
1 0 0 1 3 2 1 0 0 0 0 0 0 0 0 0 0 0 0 0 0 0 0 0 0 0 0 0 0 0 0 0 0 0 0 0 0 1 2 2 1 0 0

GEFSMA_con_probscp_222.txt.gz
Probability
38 36 37 38 34 33 35 34 31 30 28 26 24 22 18 15 15 14 16 21 27 29 27 27 24 19 15 12 12 16 21 23 20 17 18 19 17 17 17 16 16 16 15
38 38 39 37 34 32 33 33 30 27 26 25 24 24 21 17 14 14 15 18 24 27 28 27 25 20 16 14 14 16 19 21 19 16 16 18 17 16 16 16 16 16 14
39 39 39 36 31 29 30 30 28 24 22 22 23 24 23 19 16 15 15 15 17 21 25 27 26 22 19 17 16 17 18 19 18 15 12 14 16 16 14 14 15 15 13
37 38 37 33 28 26 26 26 24 21 20 19 20 20 20 19 18 16 16 14 13 15 21 25 25 23 21 19 18 17 17 17 16 14 10 10 13 15 13 12 13 14 15
33 33 33 30 27 25 24 23 21 20 18 18 17 16 16 18 17 16 15 13 13 15 18 21 22 22 21 19 17 16 16 15 15 14 10 8 11 12 11 11 11 15 16
30 29 29 28 27 25 24 22 22 20 18 17 15 12 13 15 15 15 13 12 14 16 16 17 18 18 18 17 14 14 14 15 15 13 11 10 10 9 9 10 11 13 15
27 27 27 27 26 24 23 23 21 18 16 16 14 10 10 13 13 13 12 12 13 14 14 14 15 16 15 14 12 12 14 15 15 13 12 11 10 9 9 10 11 12 12
24 25 26 25 24 23 23 22 20 15 12 13 11 8 7 10 11 10 10 11 11 13 13 13 13 13 12 10 9 10 13 15 15 14 13 12 10 9 9 10 12 12 10
22 23 22 21 21 21 22 21 18 13 10 8 6 5 5 7 8 9 9 9 8 9 10 10 9 9 9 8 7 8 11 12 13 14 14 12 10 8 7 8 11 11 10
19 20 20 18 19 20 20 18 16 13 9 5 3 3 4 4 5 6 7 6 5 5 6 5 5 6 7 7 8 8 8 8 8 11 12 12 11 10 8 8 9 9 9
15 16 18 18 18 19 17 15 14 11 8 4 3 3 4 4 4 4 4 3 3 3 3 3 3 4 6 7 8 7 5 3 4 7 9 11 13 12 10 9 8 8 7
12 14 16 17 16 14 12 11 10 9 7 5 4 4 4 4 4 3 3 2 2 2 3 3 3 4 6 6 6 5 4 2 1 3 6 9 11 11 10 9 8 7 6
13 14 16 16 13 10 8 8 7 7 7 7 6 5 4 3 3 3 3 2 1 1 3 3 3 4 6 6 4 4 4 2 1 1 3 5 7 9 9 9 8 6 5
14 15 16 14 11 8 7 7 7 7 7 7 7 6 4 2 2 2 3 2 1 1 2 3 4 5 5 5 4 4 5 3 1 0 1 2 4 6 8 7 6 5 5
13 14 14 12 10 8 7 8 7 6 7 8 7 5 3 1 0 1 1 2 2 1 1 2 3 4 4 3 3 4 5 3 1 0 0 0 1 3 4 4 3 3 2
11 10 9 8 8 7 8 8 7 7 8 8 6 4 2 1 0 0 1 3 3 1 0 1 3 4 4 3 3 5 6 4 1 0 0 0 0 1 1 1 1 1 0
9 8 7 6 6 7 8 8 7 8 8 6 4 2 1 0 0 0 2 4 4 2 1 1 2 3 3 3 4 5 6 5 2 0 0 0 0 0 0 0 0 0 0
7 7 7 7 7 8 8 8 7 7 6 5 2 1 0 0 0 0 1 2 3 2 1 0 1 1 1 3 4 5 6 5 3 1 0 0 0 0 0 0 0 0 0
5 6 8 9 9 9 9 7 6 5 6 5 3 1 0 0 0 0 0 1 1 1 0 0 0 0 1 2 3 4 5 5 3 1 0 0 0 0 0 0 0 0 0
5 6 7 8 9 9 9 7 6 5 5 4 2 1 0 0 0 0 0 1 0 0 0 0 0 0 1 2 3 3 4 4 2 0 0 0 0 0 0 0 0 0 0
6 6 6 7 7 7 6 6 5 5 4 3 1 0 0 0 0 0 0 0 0 0 0 0 1 1 1 2 2 2 3 3 2 1 0 0 0 0 0 0 0 0 0
6 6 6 6 5 4 3 3 4 5 5 4 1 0 0 0 0 0 0 0 0 0 0 0 0 0 1 1 1 1 1 1 1 1 0 0 0 0 0 0 0 0 0
6 6 6 6 5 3 1 1 2 4 5 4 2 1 0 0 0 0 0 0 0 0 0 0 1 1 0 0 0 0 0 0 0 0 0 0 0 0 0 0 0 0 0
6 6 6 6 5 3 1 0 1 3 4 3 2 2 1 1 0 0 0 0 0 0 0 0 1 1 0 0 0 0 0 0 0 0 0 0 0 0 0 0 0 0 0
4 4 5 5 4 3 1 0 1 2 3 2 2 1 1 0 0 0 0 0 0 0 0 0 1 1 0 0 0 0 0 0 0 0 0 0 0 0 0 0 0 0 0
3 4 4 3 3 2 1 0 1 2 3 1 1 1 0 0 0 0 0 0 0 0 0 0 0 0 0 0 0 0 0 0 0 0 0 0 0 0 0 0 0 0 0

GEFSMA_con_probscp_228.txt.gz
Probability
12 12 13 13 13 15 17 18 18 17 16 16 16 16 16 16 15 14 11 10 14 20 24 24 27 32 35 35 35 34 31 26 22 22 26 24 19 15 15 12 6 5 6
11 12 12 13 14 15 16 16 16 16 15 13 13 14 14 13 12 11 9 9 12 18 22 23 25 30 33 33 33 33 32 28 24 24 27 26 21 17 15 11 7 5 7
12 12 12 13 14 14 14 13 13 14 13 11 11 11 10 9 9 8 7 7 8 13 17 19 22 26 28 29 29 31 31 28 25 24 25 25 21 17 14 11 8 7 7
13 13 12 12 12 12 11 10 10 11 11 10 8 8 7 7 7 7 6 6 6 7 11 15 18 21 23 23 24 26 27 26 23 20 21 21 20 16 11 9 9 9 9
11 12 12 12 11 10 9 8 8 9 9 8 6 5 4 4 5 6 6 6 5 5 7 10 12 14 16 18 20 22 24 24 21 18 16 17 17 15 9 5 7 10 11
9 10 11 11 11 11 9 7 7 7 7 6 4 2 2 2 3 4 4 5 5 4 5 6 6 8 10 14 16 19 20 20 19 17 14 14 15 14 9 5 5 8 10
6 8 10 11 11 11 10 7 6 6 5 5 3 1 0 0 1 2 3 4 4 4 4 5 4 5 7 10 13 15 16 16 17 16 15 14 14 13 9 5 5 6 7
5 6 8 10 11 11 9 7 5 4 4 3 2 1 0 0 0 1 2 4 4 4 3 4 3 3 4 6 8 11 14 14 14 14 15 15 15 12 8 5 4 4 4
6 7 8 9 10 10 8 5 4 3 3 2 1 0 0 0 0 0 1 2 3 3 3 3 3 3 3 4 5 7 10 10 10 11 14 15 14 13 10 6 4 2 2
7 7 7 8 9 8 6 4 4 4 3 1 0 0 0 0 0 0 0 0 1 1 1 2 3 3 3 3 3 4 4 5 5 7 11 13 13 12 11 9 6 4 4
7 7 7 7 7 7 6 4 4 4 3 1 0 0 0 0 0 0 0 0 0 0 0 1 2 2 3 3 3 3 3 4 3 4 6 8 9 8 8 9 9 8 7
6 6 6 6 6 6 5 4 3 3 2 0 0 0 0 0 0 0 0 0 0 0 0 0 1 1 1 2 3 3 4 4 4 3 3 4 4 5 5 6 7 8 9
6 6 6 6 5 4 4 4 3 3 2 0 0 0 0 0 0 0 0 0 0 0 0 0 0 0 0 1 2 3 3 3 3 2 2 2 1 2 3 4 4 5 6
4 4 5 5 4 3 3 3 3 3 2 1 0 0 0 0 0 0 0 0 0 0 0 0 0 0 0 0 1 1 2 1 1 1 1 1 0 1 2 2 2 2 3
3 3 3 3 3 3 3 3 3 3 3 2 1 0 0 0 0 0 0 0 0 0 0 0 0 0 0 0 0 0 0 0 0 0 0 0 0 0 1 1 1 1 1
3 2 3 3 3 2 2 3 3 3 3 3 2 1 0 0 0 0 0 0 0 0 0 0 0 0 0 0 0 0 0 0 0 0 0 0 0 0 0 0 0 0 0
3 3 3 3 3 2 1 1 2 3 3 3 3 2 1 0 0 0 0 0 0 0 0 0 0 0 0 0 0 0 0 0 0 0 0 0 0 0 0 0 0 0 0
3 3 2 2 2 2 1 0 1 2 2 3 3 2 1 0 0 0 0 0 0 0 0 0 0 0 0 0 0 0 0 0 0 0 0 0 0 0 0 0 0 0 0
2 1 1 1 1 1 1 1 0 1 1 1 2 1 1 0 0 0 0 0 0 0 0 0 0 0 0 0 0 0 0 0 0 0 0 0 0 0 0 0 0 0 0
1 0 0 0 0 0 1 1 0 0 0 0 0 0 0 0 0 0 0 0 0 0 0 0 0 0 0 0 0 0 0 0 0 0 0 0 0 0 0 0 0 0 0
0 0 0 0 0 0 0 0 0 0 0 0 0 0 0 0 0 0 0 0 0 0 0 0 0 0 0 0 0 0 0 0 0 0 0 0 0 0 0 0 0 0 0
0 0 0 0 0 0 0 0 0 0 0 0 0 0 0 0 0 0 0 0 0 0 0 0 0 0 0 0 0 0 0 0 0 0 0 0 0 0 0 0 0 0 0
0 0 0 0 0 0 0 0 0 0 0 0 0 0 0 0 0 0 0 0 0 0 0 0 0 0 0 0 0 0 0 0 0 0 0 0 0 0 0 0 0 0 0
0 0 0 0 0 0 0 0 0 0 0 0 0 0 0 0 0 0 0 0 0 0 0 0 0 0 0 0 0 0 0 0 0 0 0 0 0 0 0 0 0 0 0
0 0 0 0 0 0 0 0 0 0 0 0 0 0 0 0 0 0 0 0 0 0 0 0 0 0 0 0 0 0 0 0 0 0 0 0 0 0 0 0 0 0 0
0 0 0 0 0 0 0 0 0 0 0 0 0 0 0 0 0 0 0 0 0 0 0 0 0 0 0 0 0 0 0 0 0 0 0 0 0 0 0 0 0 0 0

GEFSMA_con_probscp_234.txt.gz
Probability
7 7 8 9 10 11 12 12 11 10 10 9 8 9 9 10 10 10 10 11 10 10 9 10 12 14 16 17 17 21 26 28 27 28 29 26 24 24 24 22 19 17 14
5 5 5 6 7 9 10 10 9 9 9 9 8 8 9 10 10 9 10 10 10 10 10 11 12 14 16 18 19 20 24 27 27 27 25 23 21 22 22 21 18 16 14
4 4 4 4 4 6 7 7 8 7 7 8 8 7 7 9 9 9 10 10 10 10 11 13 14 15 17 20 20 19 22 26 25 24 22 20 19 18 18 19 19 17 15
5 4 4 3 3 4 4 5 6 6 6 7 6 5 5 8 9 9 9 9 9 10 11 13 13 14 17 20 21 18 20 23 22 20 19 18 17 16 16 17 19 18 16
6 5 4 3 3 3 3 4 5 6 6 6 6 5 5 6 6 6 6 6 6 7 9 10 9 10 14 17 18 17 16 18 18 19 19 18 16 16 16 16 16 15 14
6 5 4 3 3 3 3 3 4 5 6 6 6 6 5 4 4 4 4 4 4 5 7 8 7 9 11 14 16 15 14 15 15 16 18 18 17 16 17 15 13 11 11
4 4 3 3 3 3 3 3 3 4 5 6 6 6 6 4 3 3 3 3 3 4 5 6 7 8 10 11 12 13 13 14 14 13 14 16 17 16 16 15 12 10 10
4 3 3 3 3 3 3 3 3 3 4 6 6 6 5 3 3 3 3 2 3 3 4 4 5 7 8 8 8 9 10 11 13 13 12 13 14 15 15 14 12 10 8
5 3 2 2 3 3 3 3 3 3 4 5 6 5 3 2 2 3 3 3 2 2 2 2 3 4 6 6 5 5 6 7 9 10 11 11 12 12 13 14 13 11 8
4 3 2 2 3 3 4 4 4 3 4 5 6 5 2 0 1 2 3 3 2 1 1 1 1 3 4 5 5 5 5 4 5 7 8 10 10 11 12 12 13 11 10
1 1 1 2 2 3 4 4 4 4 4 5 6 4 1 0 0 1 1 2 1 0 0 0 0 1 2 3 3 4 3 3 3 4 5 6 8 10 10 10 11 11 11
0 0 0 1 1 1 1 2 3 4 4 4 5 3 1 0 0 0 0 0 0 0 0 0 0 0 0 1 1 1 2 2 3 2 3 4 6 7 7 8 10 11 11
0 0 1 1 1 0 0 0 1 3 3 4 4 3 1 0 0 0 0 0 0 0 0 0 0 0 0 0 0 0 1 1 1 1 1 2 4 5 5 6 9 10 11
0 0 1 2 1 0 0 0 0 1 2 3 4 3 1 1 0 0 0 0 0 0 0 0 0 0 0 0 0 0 0 0 0 0 0 1 3 3 3 4 6 7 7
0 0 1 2 2 0 0 0 0 1 1 2 2 2 2 2 1 1 0 0 0 0 0 0 0 0 0 0 0 0 0 0 0 0 0 0 1 1 2 3 4 4 4
0 0 1 2 1 0 0 0 0 0 0 0 1 1 1 2 2 2 1 0 0 0 0 0 0 0 0 0 0 0 0 0 0 0 0 0 0 0 1 1 2 2 2
0 0 1 1 0 1 1 1 0 0 0 0 0 0 0 1 1 1 1 0 0 0 0 0 0 0 0 0 0 0 0 0 0 0 0 0 0 0 0 0 1 1 1
0 0 0 0 0 1 2 2 1 0 0 0 0 0 0 0 0 0 0 0 0 0 0 0 0 0 0 0 0 0 0 0 0 0 0 0 0 0 0 0 0 0 0
0 0 0 0 0 1 1 2 1 0 0 0 0 0 0 0 0 0 0 0 0 0 0 0 0 0 0 0 0 0 0 0 0 0 0 0 0 0 0 0 0 0 0
0 0 0 0 0 0 0 1 1 0 0 0 0 0 0 0 0 0 0 0 0 0 0 0 0 0 0 0 0 0 0 0 0 0 0 0 0 0 0 0 0 0 0
0 0 0 0 0 0 0 0 0 0 0 0 0 0 0 0 0 0 0 0 0 0 0 0 0 0 0 0 0 0 0 0 0 0 0 0 0 0 0 0 0 0 0
0 0 0 0 0 0 0 0 0 0 0 0 0 0 0 0 0 0 0 0 0 0 0 0 0 0 0 0 0 0 0 0 0 0 0 0 0 0 0 1 0 0 0
0 0 0 0 0 0 0 0 0 0 0 0 0 0 0 0 0 0 0 0 0 0 0 0 0 0 0 0 0 0 0 0 0 0 0 0 0 0 0 0 0 0 0
0 0 0 0 0 0 0 0 0 0 0 0 0 0 0 0 0 0 0 0 0 0 0 0 0 0 0 0 0 0 0 0 0 0 0 0 0 0 0 0 0 0 0
0 0 0 0 0 0 0 0 0 0 0 0 0 0 0 0 0 0 0 0 0 0 0 0 0 0 0 0 0 0 0 0 0 0 0 0 0 0 1 0 0 0 0
0 0 0 0 0 0 0 0 0 0 0 0 0 0 0 0 0 0 0 0 0 0 0 0 0 0 0 0 0 0 0 0 0 0 0 0 0 0 1 0 0 0 0

GEFSMA_con_probscp_240.txt.gz
Probability
14 13 10 8 6 6 7 7 7 8 7 5 4 4 5 8 12 14 16 18 19 20 21 21 19 18 17 18 21 25 29 31 33 35 35 32 30 30 28 25 24 24 24
13 13 11 8 7 6 7 7 7 7 7 5 3 3 5 8 10 13 14 16 17 19 20 21 21 19 18 18 19 23 29 33 34 34 35 31 28 29 29 27 24 22 22
12 12 12 9 6 6 6 6 6 6 6 5 3 3 4 6 8 10 11 13 14 16 18 20 21 21 20 19 19 21 28 34 35 34 34 31 28 29 30 28 24 21 20
10 11 11 8 6 5 5 5 4 4 4 4 3 2 2 4 5 6 7 9 11 13 14 16 19 20 21 20 19 20 25 31 33 34 33 31 29 30 30 27 24 21 20
7 8 8 6 5 6 6 5 4 3 3 3 3 2 2 3 4 4 4 6 8 10 11 13 16 17 19 20 19 20 23 28 31 32 33 33 31 29 27 25 24 23 21
5 6 6 5 5 6 7 6 5 4 3 3 3 3 3 4 4 3 3 4 6 7 8 11 13 13 15 18 19 20 23 26 29 30 33 35 33 29 25 23 23 22 19
5 6 6 6 5 6 7 7 5 4 3 3 4 4 3 3 4 4 3 4 4 6 7 9 11 12 14 16 19 21 22 24 25 26 30 33 32 29 27 23 20 17 16
5 6 7 7 6 6 7 8 7 5 4 4 5 5 4 2 1 2 3 4 5 6 8 8 11 14 16 16 17 20 22 23 23 23 26 29 28 26 26 24 19 15 14
5 7 8 8 7 6 7 8 8 6 4 4 5 6 5 3 1 1 2 3 4 7 9 9 9 14 16 17 17 19 22 23 21 21 23 24 22 20 21 23 22 18 15
6 9 10 10 8 7 8 9 8 6 4 4 4 4 5 5 4 3 3 3 5 7 10 10 10 12 14 16 17 17 19 19 17 19 20 20 18 17 17 19 21 19 15
7 10 12 11 10 9 9 9 7 5 4 3 3 3 5 6 6 6 5 6 7 8 11 13 13 12 13 14 15 14 12 12 12 14 16 17 15 13 13 14 16 16 14
7 8 10 12 12 10 9 8 7 5 3 2 2 4 5 6 8 8 7 7 8 9 12 14 14 13 12 10 10 9 8 6 7 9 10 11 10 9 9 10 12 12 11
6 6 7 10 10 9 7 6 6 5 4 3 3 5 6 8 10 9 7 7 8 10 12 12 12 12 11 9 7 6 5 3 2 4 4 4 4 5 6 7 9 10 9
4 4 5 6 6 4 4 5 6 6 5 4 4 5 6 7 9 9 6 6 7 8 9 9 9 9 10 9 6 4 3 1 0 1 1 1 1 3 4 5 7 9 9
3 3 2 3 3 2 2 4 5 5 4 3 3 4 5 5 6 6 6 5 6 7 7 7 6 7 8 7 5 4 3 1 0 0 0 0 0 1 2 2 3 6 7
3 2 1 1 3 3 3 3 4 4 3 3 3 3 3 3 3 4 5 5 5 5 5 4 4 5 5 5 4 4 3 1 0 0 0 0 0 0 0 0 1 2 3
3 2 1 1 2 2 2 2 3 3 3 3 3 3 3 3 4 4 4 4 4 4 3 2 2 4 5 5 4 3 3 2 0 0 0 0 0 0 0 0 0 1 1
3 2 1 0 1 1 0 1 1 3 3 3 3 3 3 4 5 5 4 4 4 3 3 2 1 2 5 6 5 4 3 2 0 0 0 0 0 0 0 0 0 0 0
2 1 0 0 0 0 0 0 1 2 3 3 3 3 3 5 6 6 5 4 3 3 3 2 1 2 3 5 6 5 3 2 0 0 0 0 0 0 0 0 0 0 0
1 0 0 0 0 0 0 0 0 1 1 2 1 1 2 3 5 5 4 3 3 3 3 3 2 2 3 4 5 4 3 2 1 1 1 0 0 0 0 0 0 0 0
0 0 0 0 0 0 0 0 0 0 0 0 0 0 1 1 2 3 3 2 3 3 3 3 3 3 3 3 3 2 1 1 2 2 2 1 0 0 0 0 0 0 0
0 0 0 0 0 0 0 0 0 0 0 0 0 0 0 0 0 1 1 1 1 2 3 3 3 3 3 3 3 2 1 1 1 1 2 1 0 0 0 0 0 0 0
0 0 0 0 0 0 0 0 0 0 1 0 0 0 0 0 0 0 0 0 0 1 1 2 3 3 3 4 4 4 3 2 2 1 1 1 0 0 0 0 0 0 0
0 0 0 0 0 0 0 0 0 0 0 0 0 0 0 0 0 0 0 0 0 0 0 1 2 2 3 4 5 4 3 3 2 1 1 0 0 0 0 0 0 0 0
0 0 0 0 0 0 0 0 0 0 0 0 0 0 0 0 0 0 0 0 0 0 0 0 1 1 1 2 3 4 3 1 1 1 0 0 0 0 0 0 0 0 0
0 0 0 0 0 0 0 0 0 0 0 0 0 0 0 0 0 0 0 0 0 0 0 0 0 0 0 0 1 3 2 1 0 0 0 0 0 0 0 0 0 0 0

GEFSMA_con_probscp_246.txt.gz
Probability
20 21 22 19 15 13 12 10 6 4 3 1 0 0 1 5 8 10 12 16 17 17 18 22 25 27 29 30 33 35 33 32 33 32 32 35 35 32 30 27 25 23 21
19 20 20 19 16 13 11 9 7 5 4 2 1 0 1 4 6 6 6 9 13 16 20 23 27 28 29 29 30 32 34 34 33 33 33 33 33 31 28 25 24 23 21
20 19 19 18 17 15 13 11 9 7 6 3 2 1 2 2 2 2 2 4 7 14 20 25 29 30 29 27 25 27 31 33 33 33 33 32 30 28 25 23 24 22 19
21 20 20 19 17 15 14 13 11 9 7 4 3 3 4 4 2 1 2 3 5 11 18 25 29 30 28 24 22 24 28 30 32 32 32 32 32 29 24 23 25 22 17
21 21 21 19 16 14 14 13 12 10 7 5 4 4 5 6 5 3 3 4 6 9 13 19 25 27 25 22 22 25 27 28 30 32 32 32 33 31 26 24 24 21 17
19 20 21 18 16 15 15 14 12 10 9 7 5 5 5 6 6 6 6 6 8 9 9 12 18 22 23 24 25 26 27 27 30 33 34 34 34 33 28 24 21 20 18
17 19 19 18 16 16 14 13 11 9 9 9 7 5 5 5 5 7 8 9 8 8 8 8 13 17 19 23 25 26 26 27 29 32 33 35 36 33 29 24 21 20 20
15 16 17 16 16 15 13 12 11 9 8 8 7 6 6 5 4 5 7 8 9 9 7 7 10 14 15 18 22 23 25 27 29 31 32 33 33 31 29 26 23 21 21
13 14 15 14 14 14 13 12 11 8 6 5 5 6 6 6 5 4 5 6 8 7 6 5 8 11 13 16 19 20 22 26 28 29 30 31 31 30 29 27 24 22 22
13 13 13 13 13 12 11 9 8 6 4 3 3 4 5 6 6 4 4 5 7 7 6 6 6 8 11 15 18 19 20 22 22 22 26 30 31 29 28 27 26 24 23
13 12 13 13 13 12 9 6 5 4 4 4 4 3 2 3 5 4 3 5 6 7 8 7 7 8 9 12 14 15 16 15 13 14 20 27 29 28 25 25 26 25 24
13 12 13 13 13 12 10 7 5 4 4 5 5 3 1 2 3 4 4 4 5 7 8 9 9 9 9 9 11 11 11 9 6 8 12 19 24 24 23 23 24 24 24
13 13 12 13 13 12 11 8 6 5 5 6 6 5 4 3 4 6 5 4 4 5 6 8 9 8 8 9 9 9 7 5 3 3 5 9 15 18 20 21 22 21 21
12 12 13 13 13 12 11 9 7 6 6 6 5 6 7 6 7 8 7 5 4 3 4 6 7 7 7 8 8 7 6 4 2 1 1 3 6 11 15 16 16 16 16
11 12 12 12 13 12 11 10 8 7 7 6 5 6 8 9 8 8 7 6 5 4 3 3 4 5 6 6 5 5 6 4 1 0 0 0 1 4 8 9 8 8 8
10 10 10 10 11 11 11 10 8 7 8 7 6 7 9 9 8 7 6 6 6 5 3 3 3 4 5 4 2 3 4 3 1 0 0 0 0 1 2 2 2 2 2
8 8 7 7 8 9 9 9 7 7 7 8 8 7 7 8 7 7 6 6 6 5 3 3 3 4 5 4 3 3 3 2 1 0 0 0 0 0 0 0 0 0 0
5 5 4 4 5 6 6 6 5 4 5 6 7 7 6 6 7 7 6 6 6 4 3 3 3 4 5 6 6 5 3 1 1 0 0 0 0 0 0 0 0 0 0
4 4 3 3 3 4 3 3 2 2 3 4 6 7 6 6 7 6 6 6 6 5 4 4 2 2 4 5 7 6 3 2 2 1 0 0 0 0 0 0 0 0 0
6 5 4 5 4 3 1 1 1 1 2 4 5 6 6 6 6 5 3 4 6 6 6 5 3 1 1 2 4 4 4 4 3 2 1 1 0 0 0 0 0 0 0
6 6 7 8 7 3 1 0 0 0 1 2 4 4 4 4 5 3 2 1 3 5 6 5 3 1 0 0 1 2 3 4 4 3 2 1 0 0 0 0 0 0 0
8 9 10 10 8 3 0 0 0 0 0 0 1 1 1 1 2 2 1 0 0 1 3 3 2 0 0 0 0 1 1 2 2 2 2 1 0 0 0 0 0 0 0
12 12 12 10 7 2 0 0 0 0 0 0 0 0 0 0 1 1 1 1 1 0 0 1 2 1 0 0 0 0 1 1 1 1 1 0 0 0 0 0 0 0 0
13 13 11 9 6 2 0 0 0 0 0 1 1 0 0 0 0 0 1 2 2 1 0 1 1 1 0 0 1 0 0 1 1 1 1 1 0 0 0 0 0 0 0
10 10 8 7 5 2 0 0 0 0 0 2 2 1 0 0 0 0 1 2 2 1 0 0 0 0 0 0 0 0 0 0 1 1 1 1 0 0 0 0 0 0 0
8 7 7 6 5 3 1 0 0 0 0 2 2 1 0 0 0 0 0 1 1 1 0 0 0 0 0 0 0 0 0 0 1 1 1 1 0 0 0 0 0 0 0